This demonstration page uses our WeatherBlox Daily Observations layout. Learn more.

Left ArrowRight Arrow

38.88101, -77.10428

Hourly Observations for March 30, 2019

Temp ( °F °C ) Dew Point ( °F °C ) Humidity (%) Winds ( mph kmh ) Pressure ( in mb ) Visibility ( mi km ) Precip ( " mm )
12:52 am 00:52 Mostly Cloudy 56 13.3 44 6.7 65 65 ENE 6 9 30.07 1018 10 16.0934 0 0
1:52 am 01:52 Cloudy 54 12.2 44 6.7 69 69 ENE 7 11 30.06 1018 10 16.0934 0 0
2:52 am 02:52 Cloudy 54 12.2 45 7.2 72 72 NE 5 7 30.03 1017 10 16.0934 0 0
3:52 am 03:52 Mostly Cloudy 55 12.8 45 7.2 69 69 ENE 3 6 30.01 1016 10 16.0934 0 0
4:52 am 04:52 Cloudy 54 12.2 45 7.2 72 72 Calm 30 1016 10 16.0934 0 0
5:52 am 05:52 Cloudy 52 11.1 46 7.8 80 80 Calm 30.01 1016 10 16.0934 0 0
6:52 am 06:52 Cloudy 53 11.7 46 7.8 77 77 Calm 30.02 1017 10 16.0934 0 0
7:52 am 07:52 Mostly Cloudy 52 11.1 47 8.3 83 83 S 3 6 30.03 1017 10 16.0934 0 0
8:52 am 08:52 Mostly Cloudy 55 12.8 46 7.8 72 72 SSW 7 11 30.03 1017 10 16.0934 0 0
9:52 am 09:52 Mostly Cloudy 61 16.1 46 7.8 58 58 SSE 8 13 30.02 1017 10 16.0934 0 0
10:52 am 10:52 Mostly Cloudy 67 19.4 44 6.7 44 44 SSW 14 22 30.01 1016 10 16.0934 0 0
11:52 am 11:52 Mostly Cloudy 67 19.4 45 7.2 45 45 S 10 17 29.99 1016 10 16.0934 0 0
12:52 pm 12:52 Mostly Cloudy 72 22.2 43 6.1 35 35 S 8 13 29.96 1015 10 16.0934 0 0
1:52 pm 13:52 Mostly Cloudy 74 23.3 45 7.2 36 36 S 9 15 29.93 1014 10 16.0934 0 0
2:52 pm 14:52 Cloudy 74 23.3 47 8.3 38 38 S 14 22 29.89 1012 10 16.0934 0 0
3:52 pm 15:52 Mostly Cloudy 76 24.4 44 6.7 32 32 S 16 26 29.85 1011 10 16.0934 0 0
4:52 pm 16:52 Mostly Cloudy 78 25.6 42 5.6 28 28 SSW 17 28 29.84 1011 10 16.0934 0 0
5:52 pm 17:52 Mostly Cloudy 76 24.4 44 6.7 32 32 S 16 26 29.83 1010 10 16.0934 0 0
6:52 pm 18:52 Mostly Cloudy 71 21.7 46 7.8 41 41 S 14 22 29.82 1010 10 16.0934 0 0
7:52 pm 19:52 Mostly Cloudy 68 20 47 8.3 47 47 S 12 19 29.81 1009 10 16.0934 0 0
8:52 pm 20:52 Mostly Cloudy 67 19.4 47 8.3 49 49 S 10 17 29.81 1009 10 16.0934 0 0
9:52 pm 21:52 Mostly Cloudy 66 18.9 47 8.3 50 50 S 16 26 29.8 1009 10 16.0934 0 0
10:52 pm 22:52 Mostly Cloudy 64 17.8 47 8.3 54 54 S 14 22 29.78 1009 10 16.0934 0 0
11:52 pm 23:52 Mostly Cloudy 65 18.3 46 7.8 51 51 S 15 24 29.75 1008 10 16.0934 0 0

Powered by AerisWeather